Overview Statistics Trail Chart Weather Telemetry Raw packets
 

This is the latest recevied weather packets stored in our database for station/object KJ7HSW. If no packets are shown the sender has not sent any weather packets the latest 10 day(s).

<< 18 19 20 21 22 23 24 >>
Time Temp. Humidity Pressure Rain* Wind** Luminosity Snow
1788476385 19.44° C 56% 1010 hPa 0 mm - 261 W/m² -
1788476079 18.89° C 58% 1009.9 hPa 0 mm - 333 W/m² -
1788475776 18.89° C 61% 1009.7 hPa 0 mm - 443 W/m² -
1788475471 18.89° C 61% 1009.7 hPa 0 mm - 265 W/m² -
1788475167 19.44° C 55% 1009.8 hPa 0 mm - 223 W/m² -
1788474866 18.89° C 52% 1010 hPa 0 mm - 215 W/m² -
1788474560 19.44° C 52% 1010 hPa 0 mm - 173 W/m² -
1788474255 20° C 50% 1010.1 hPa 0 mm - 198 W/m² -
1788473949 20° C 50% 1010.2 hPa 0 mm - 754 W/m² -
1788473649 20° C 50% 1010.2 hPa 0 mm - 750 W/m² -
1788473346 19.44° C 56% 1010.1 hPa 0 mm - 795 W/m² -
1788473040 18.33° C 57% 1010.4 hPa 0 mm - 435 W/m² -
1788472738 18.33° C 57% 1010.6 hPa 0 mm - 246 W/m² -
1788472435 18.33° C 58% 1010.5 hPa 0 mm - 223 W/m² -
1788472133 18.33° C 58% 1010.5 hPa 0 mm - 243 W/m² -
1788471829 18.89° C 58% 1010.6 hPa 0 mm - 228 W/m² -
1788471528 18.89° C 56% 1010.7 hPa 0 mm - 428 W/m² -
1788471224 18.89° C 57% 1010.4 hPa 0 mm - 635 W/m² -
1788470920 18.89° C 57% 1010.6 hPa 0 mm - 685 W/m² -
1788470616 17.78° C 60% 1010.5 hPa 0 mm - 484 W/m² -
1788470315 18.33° C 62% 1010.8 hPa 0 mm - 567 W/m² -
1788470012 17.78° C 61% 1010.8 hPa 0 mm - 358 W/m² -
1788469707 17.78° C 59% 1010.8 hPa 0 mm - 255 W/m² -
1788469402 17.78° C 60% 1010.6 hPa 0 mm - 240 W/m² -
1788469101 17.78° C 61% 1010.6 hPa 0 mm - 251 W/m² -

* Rain latest hour (hover to see other rain measurements)
** Current wind speed in m/s (hover to see current wind gust speed)